User: anonymous   Login
Location: Drayton Valley
(53.2170°N, 114.9830°W)
Time: 14:41:47
(UTC-06:00)
Language:

Cosmos 1302 Rocket - Orbit

View from above orbital plane
View from above orbital plane
View from above satellite
View from above satellite

Ground track
Ground track

The orbit data is extracted from the following two-line orbital elements,

1 12792U 81084B   16120.39174836  .00000119  00000-0  48530-4 0  9998
2 12792  74.0299  77.0950 0012522 104.9226  23.1934 14.37412261815601
Epoch (UTC): 29 April 2016 09:24:07
Eccentricity: 0.0012522
inclination: 74.0299°
perigee height: 758 km
apogee height: 776 km
right ascension of ascending node: 77.0950°
argument of perigee: 104.9226°
revolutions per day: 14.37412261
mean anomaly at epoch: 23.1934°
orbit number at epoch: 81560

The dashed part of the orbit path shows where the satellite is in the earth's shadow,  

DLR